www.pogodaiklimat.ru

Погода и климат >> Архив погоды >> Россия >> Якутия >> Тонгулах


ПОГОДА в Тонгулахе

  • Прогноз погоды в Тонгулахе
  • Монитор погоды в Тонгулахе
  • Климат города

АРХИВ ПОГОДЫ в Тонгулахе

Время (UTC), дата Ветер
(напр.,м/с)
 
Видим.   Явления Облачность Т
(С)
Тd
(С)
f
(%)
Тe
(С)
Тes
(С)
Комфортность P
(гПа)
Po
(гПа)
Тmin
(С)
Tmax
(С)
R
(мм)
S
(см)
15 14.02 штиль 0 50 км 3/0
[Ci fib]
-37.0 -39.8 75 -37 -37 опасность
обморожения
1031.0 1001.8
18 14.02 штиль 0 20 км 5/0
[Ci fib]
-37.4 -40.1 76 -37 -37 опасность
обморожения
1030.6 1001.4
21 14.02 штиль 0 20 км 5/0
[Ci fib]
-41.0 -43.8 74 -41 -41 опасность
обморожения
1030.1 1000.4
00 15.02 штиль 0 50 км 8/0
[Ci fib]
-42.0 -45.0 72 -42 -42 опасность
обморожения
1029.7 999.9 -42.2 36
03 15.02 штиль 0 50 км 4/0
[Ci fib]
-31.0 -34.1 74 -31 -29 опасность
обморожения
1027.8 999.4
06 15.02 штиль 0 50 км ясно -22.0 -25.9 71 -22 -21 1025.9 998.5
09 15.02 штиль 0 50 км ясно -27.0 -30.2 74 -27 -27 1026.5 998.5
12 15.02 штиль 0 20 км ясно -35.0 -38.0 74 -35 -35 опасность
обморожения
1027.4 998.5 -21.7
15 15.02 штиль 0 20 км ясно -43.0 -45.6 75 -43 -43 опасность
обморожения
1028.3 998.4
18 15.02 штиль 0 20 км ясно -45.0 -47.8 73 -45 -45 опасность
обморожения
1028.3 998.1
21 15.02 штиль 0 20 км ясно -43.0 -45.6 75 -43 -43 опасность
обморожения
1029.0 999.1
00 16.02 штиль 0 50 км 10/0
[Ci fib]
-42.5 -45.0 76 -43 -42 опасность
обморожения
1030.0 1000.1 -45.3 37
03 16.02 штиль 0 50 км ясно -33.1 -36.0 75 -33 -31 опасность
обморожения
1029.7 1001.0
06 16.02 штиль 0 50 км 4/0
[Ci fib]
-24.9 -28.9 69 -25 -24 1029.1 1001.4
09 16.02 штиль 0 50 км 5/0
[Ci fib]
-28.0 -31.2 74 -28 -28 1030.7 1002.5
12 16.02 штиль 0 20 км 4/0
[Ci fib]
-36.6 -39.4 75 -37 -37 опасность
обморожения
1032.4 1003.1 -24.6
15 16.02 штиль 0 20 км 10/0
[Cs]
-35.0 -38.0 74 -35 -35 опасность
обморожения
1032.1 1003.0
18 16.02 штиль 0 20 км 10/0
[Cs]
-34.4 -37.4 74 -34 -34 опасность
обморожения
1031.7 1002.8
21 16.02 штиль 0 20 км 8/0
[Ci fib]
-34.2 -37.4 73 -34 -34 опасность
обморожения
1030.6 1001.7
00 17.02 штиль 0 50 км 6/0
[Ci sp]
-36.5 -39.4 74 -37 -36 опасность
обморожения
1030.3 1001.1 -36.7 37
03 17.02 СЗ 1 50 км 10/0
[Ac trans Ci sp]
-27.7 -30.8 75 -32 -30 опасность
обморожения
1027.5 1000.4
06 17.02 ЮЗ 2 50 км 8/0
[Ci sp]
-22.7 -27.5 65 -29 -28 1026.0 998.5
09 17.02 ЮЗ 1 50 км 3/0
[Ci sp]
-25.3 -29.3 69 -29 -29 1024.9 997.3
12 17.02 штиль 0 20 км ясно -34.6 -37.4 76 -35 -35 опасность
обморожения
1025.4 996.6 -21.0
15 17.02 штиль 0 20 км 3/0
[Ci sp]
-37.5 -40.5 73 -38 -38 опасность
обморожения
1024.7 995.5
18 17.02 штиль 0 20 км 4/0
[Ci sp]
-38.0 -40.9 74 -38 -38 опасность
обморожения
1023.8 994.6
21 17.02 штиль 0 20 км ясно -40.1 -42.8 75 -40 -40 опасность
обморожения
1022.5 993.1
00 18.02 штиль 0 50 км 6/0
[Ci fib]
-38.0 -40.9 74 -38 -38 опасность
обморожения
1021.0 992.0 -40.3 37
03 18.02 штиль 0 50 км 8/0
[Ci fib]
-24.2 -28.1 70 -24 -22 1018.3 990.9
06 18.02 ЮЗ 1 50 км 6/0
[Ac trans]
-18.5 -24.4 60 -21 -21 1016.2 989.5
09 18.02 штиль 0 50 км 4/0
[Ci fib]
-23.0 -27.0 70 -23 -23 1016.5 989.3
12 18.02 штиль 0 20 км ясно -27.0 -30.2 74 -27 -27 1017.0 989.3 -18.0
15 18.02 штиль 0 20 км ясно -33.0 -36.0 74 -33 -33 опасность
обморожения
1017.4 989.0
18 18.02 штиль 0 20 км ясно -34.5 -37.4 75 -35 -35 опасность
обморожения
1017.1 988.6
21 18.02 штиль 0 20 км ясно -35.0 -38.0 74 -35 -35 опасность
обморожения
1018.1 989.2
00 19.02 штиль 0 50 км 6/0
[Ci fib]
-35.0 -38.0 74 -35 -35 опасность
обморожения
1017.9 989.3 -35.3 37
03 19.02 штиль 0 50 км 5/0
[Ci fib]
-25.0 -28.1 75 -25 -23 1016.0 988.5
06 19.02 штиль 0 50 км 5/0
[Ci fib]
-18.0 -22.1 70 -18 -17 1014.0 987.4
09 19.02 штиль 0 50 км 8/0
[Ci fib]
-21.0 -25.0 70 -21 -21 1014.1 987.2
12 19.02 штиль 0 20 км 8/0
[Ci fib]
-23.0 -26.3 74 -23 -23 1014.4 987.3 -17.7
15 19.02 штиль 0 20 км 8/0
[Ci fib]
-25.0 -27.4 80 -25 -25 1014.3 987.0
18 19.02 штиль 0 20 км 10/0
[Ci fib]
-26.0 -28.4 80 -26 -26 1014.2 986.8
21 19.02 штиль 0 20 км 10/0
[Cs]
-24.6 -27.2 79 -25 -25 1013.7 986.4
00 20.02 штиль 0 50 км 10/0
[As trans Cs]
-26.9 -29.3 80 -27 -27 1014.6 987.0 -27.0 37
03 20.02 штиль 0 50 км 10/0
[As trans Cs]
-16.7 -20.1 75 -17 -15 1014.3 987.7
06 20.02 СЗ 1 50 км 10/6 1000 м
[Sc Ci fib]
-14.8 -19.1 70 -17 -17 1014.4 988.0
09 20.02 штиль 0 50 км 10/0
[Ac As Ci fib]
-16.8 -20.2 75 -17 -17 1015.5 988.9
12 20.02 штиль 0 20 км 10/0
[Ci fib]
-22.6 -25.8 75 -23 -23 1017.3 990.0 -14.5
15 20.02 штиль 0 20 км 10/0
[Ci fib]
-31.4 -34.3 75 -31 -31 опасность
обморожения
1019.4 991.2
18 20.02 штиль 0 20 км 5/0
[Ci fib]
-33.0 -36.0 74 -33 -33 опасность
обморожения
1020.5 992.1
21 20.02 штиль 0 20 км ясно -40.1 -42.8 75 -40 -40 опасность
обморожения
1022.8 993.4
00 21.02 штиль 0 50 км 4/0
[Ci fib]
-39.7 -42.3 76 -40 -39 опасность
обморожения
1023.8 994.4 -40.3 37
03 21.02 штиль 0 50 км 3/0
[Ci fib]
-27.7 -30.8 75 -28 -25 1022.8 994.8
06 21.02 З 1 50 км ясно -20.4 -24.5 70 -23 -22 1021.5 994.4

 

Местоположение метеостанции Тонгулах (Якутия, Россия): широта 61.92 долгота 124.50 высота над уровнем моря 199 м.

В архиве по умолчанию представлена погода в Тонгулахе за последнюю неделю. Архивные данные за месяц целиком и за предыдущие месяцы, начиная с января 2011 года, Вы можете получить, выбрав интересующий диапазон дат из раскрывающегося списка и нажав кнопку "Ввод!".

Внимание! Время в таблицах - всемирное. Для получения местного времени необходимо прибавить поправку, которая в Тонгулахе равна 9 ч.

Смотрите также архив погоды в соседних городах и на ближайших метеорологических станциях:

Погода в Исите (Якутия, Россия) (130 км)
Погода в Бердигестяхе (Якутия, Россия) (136 км)
Погода в Хатырык-Хомо (Якутия, Россия) (226 км)
Погода в Покровске (Якутия, Россия) (247 км)
Погода в Вилюйске (Якутия, Россия) (253 км)
Погода в Якутске (Якутия, Россия) (267 км)
Погода в Сангаре (Якутия, Россия) (269 км)
Погода в Олекминске (Якутия, Россия) (277 км)
Погода в Верхневилюйске (Якутия, Россия) (278 км)
Погода в Намцах (Якутия, Россия) (278 км)

Пояснения к столбцам:

Ветер - указаны скорость ветра в м/с - средняя за 10 мин, порывы в срок и между сроками (в фигурных скобках) и направление, откуда дует ветер: С - северный, СВ - северо-восточный, В - восточный, ЮВ - юго-восточный, Ю - южный, ЮЗ - юго-западный, З - западный, СЗ - северо-западный.
Видимость - горизонтальная дальность видимости в метрах или километрах. При видимости от 1 до 10 км при отсутствии осадков обычно наблюдается дымка, при ухудшении видимости до 1 км и менее - туман. В сухую погоду видимость может ухудшаться дымом, пылью или мглою.
Явления - указаны атмосферные явления, наблюдавшиеся в срок или в последний час перед сроком; фигурными скобками обозначены явления, наблюдавшиеся между сроками (за 1-3 часа до срока); квадратными скобками обозначены град или гололедные отложения с указанием их диаметра в мм.
Облачность - указаны через наклонную черту общая и нижняя облачность в баллах и высота нижней границы облаков в метрах; квадратными скобками обозначены формы облаков: Ci - перистые, Cs - перисто-слоистые, Cc - перисто-кучевые, Ac - высококучевые, As - высокослоистые, Sc - слоисто-кучевые, Ns - слоисто-дождевые, Cu - кучевые, Cb - кучево-дождевые. Подробнее классификацию облаков см. в Атласе облаков (PDF).
T - Температура воздуха - температура, измеренная на высоте 2 м над землей.
Td - Температура точки росы - температура, при понижении до которой содержащийся в воздухе водяной пар достигнет насыщения.
f - Относительная влажность воздуха - влажноcть воздуха, измеренная на высоте 2 м над землей.
Te - Эффективная температура - температура, которую ощущает одетый по сезону человек в тени. Характеристика душности погоды. При расчете учитывается влияние влажности воздуха и скорости ветра на теплоощущения человека.
Tes - Эффективная температура на солнце - температура, которую ощущает человек, с поправкой на солнечный нагрев. Характеристика знойности погоды. Зависит от высоты солнца над горизонтом, облачности и скорости ветра. Ночью, в пасмурную погоду, а также при ветре 12 м/с и более поправка равна нулю.
P - Атмосферное давление - приведенное к уровню моря атмосферное давление.
Po - Атмосферное давление - измеренное на уровне метеостанции атмосферное давление.
Tmin - Минимальная температура - минимум температуры воздуха на высоте 2 м над землей.
Tmax - Максимальная температура - максимум температуры воздуха на высоте 2 м над землей.
R - Количество осадков - Количество выпавших осадков, мм. При наведении курсора мыши на число - период времени, за который выпало указанное количество осадков.
S - Снежный покров - Высота снежного покрова, см. При наведении курсора мыши на число - состояние снежного покрова и степень покрытия местности в баллах.